ISS (ZARYA) 1 25544U 98067A 26063.15679535 .00010207 00000+0 19684-3 0 9998 2 25544 51.6316 99.7104 0008201 155.0339 205.1047 15.48434477555473 POISK 1 36086U 09060A 26063.15679535 .00010207 00000+0 19684-3 0 9996 2 36086 51.6316 99.7104 0008201 155.0339 205.1047 15.48434477555634 CSS (TIANHE) 1 48274U 21035A 26063.14773523 .00030185 00000+0 35996-3 0 9996 2 48274 41.4658 241.8750 0006828 240.6834 119.3323 15.60380094276747 ISS (NAUKA) 1 49044U 21066A 26063.15679535 .00010207 00000+0 19684-3 0 9994 2 49044 51.6316 99.7104 0008201 155.0339 205.1047 15.48434477555676 FREGAT DEB 1 49271U 11037PF 26062.07347650 .00033502 00000+0 49339-1 0 9994 2 49271 51.6509 320.5956 0955180 44.2014 323.1255 12.39774562211870 CSS (WENTIAN) 1 53239U 22085A 26063.14773523 .00030185 00000+0 35996-3 0 9999 2 53239 41.4658 241.8750 0006828 240.6834 119.3323 15.60380094276340 CSS (MENGTIAN) 1 54216U 22143A 26063.14773523 .00030185 00000+0 35996-3 0 9990 2 54216 41.4658 241.8750 0006828 240.6834 119.3323 15.60380094276313 PROGRESS-MS 31 1 64751U 25146A 26063.15679535 .00010207 00000+0 19684-3 0 9999 2 64751 51.6316 99.7104 0008201 155.0339 205.1047 15.48434477555713 TIANZHOU-9 1 64786U 25149A 26063.14773523 .00030185 00000+0 35996-3 0 9992 2 64786 41.4658 241.8750 0006828 240.6834 119.3323 15.60380094276327 PROGRESS-MS 32 1 65586U 25204A 26063.15679535 .00010207 00000+0 19684-3 0 9991 2 65586 51.6316 99.7104 0008201 155.0339 205.1047 15.48434477555833 CYGNUS NG-23 1 65616U 25208A 26063.15679535 .00010207 00000+0 19684-3 0 9999 2 65616 51.6316 99.7104 0008201 155.0339 205.1047 15.48434477555871 ISS OBJECT XK 1 65731U 98067XK 26063.05584253 .01140742 75302-3 14788-2 0 9990 2 65731 51.6154 76.3709 0005697 59.0422 301.1150 16.06563087 25995 YOTSUBA-KULOVER 1 65941U 98067XN 26063.07381848 .00226043 00000+0 12720-2 0 9991 2 65941 51.6208 86.3668 0006098 32.9747 327.1633 15.77989263 22614 BOTAN 1 65942U 98067XP 26062.30429370 .04760636 12041-4 14503-2 0 9999 2 65942 51.6040 82.5602 0002926 46.9281 313.1984 16.26065139 22592 E-KAGAKU-1 1 65943U 98067XQ 26063.07717679 .00219013 00000+0 12483-2 0 9993 2 65943 51.6231 86.4051 0006255 40.9518 319.1952 15.77722177 22613 HRC MONOBLOCK CAMERA 1 66052U 98067XR 26063.06976557 .00063635 00000+0 72884-3 0 9995 2 66052 51.6271 93.8827 0003424 65.6945 294.4406 15.61501169 21511 HTV-X1 1 66174U 25241A 26063.15679535 .00010207 00000+0 19684-3 0 9996 2 66174 51.6316 99.7104 0008201 155.0339 205.1047 15.48434477555758 SZ-21 MODULE 1 66515U 25246C 26062.76916662 .00044751 00000+0 39281-3 0 9997 2 66515 41.4730 239.7930 0001447 287.9355 72.1329 15.68011820 17141 SHENZHOU-22 1 66645U 25272A 26063.14773523 .00030185 00000+0 35996-3 0 9995 2 66645 41.4658 241.8750 0006828 240.6834 119.3323 15.60380094268256 SOYUZ-MS 28 1 66664U 25275A 26063.15679535 .00010207 00000+0 19684-3 0 9997 2 66664 51.6316 99.7104 0008201 155.0339 205.1047 15.48434477555910 DUPLEX 1 66906U 98067XS 26063.12706061 .00039457 00000+0 56459-3 0 9996 2 66906 51.6284 97.2659 0002066 91.2165 268.9063 15.55805155 14268 ISS OBJECT XT 1 66907U 98067XT 26063.10271002 .00174880 00000+0 15595-2 0 9992 2 66907 51.6245 94.0932 0004672 41.2658 318.8690 15.67342858 14307 ISS OBJECT XU 1 66908U 98067XU 26063.10128458 .00178631 00000+0 15859-2 0 9990 2 66908 51.6244 94.0803 0004715 45.5168 314.6213 15.67438854 14302 SILVERSAT 1 66909U 98067XV 26063.11194191 .00216262 00000+0 17275-2 0 9996 2 66909 51.6238 93.4007 0005539 42.4884 317.6541 15.69884457 14315 ISS OBJECT XW 1 66910U 98067XW 26062.45772056 .00132206 00000+0 12184-2 0 9995 2 66910 51.6243 97.2785 0004869 51.9689 308.1746 15.66680726 14201 ISS OBJECT XX 1 66911U 98067XX 26063.18253700 .00282325 00000+0 20053-2 0 9999 2 66911 51.6215 92.3562 0006925 49.2793 310.8806 15.72471487 14320 ISS OBJECT XY 1 66912U 98067XY 26063.08333605 .00107173 00000+0 11699-2 0 9995 2 66912 51.6268 95.4706 0002906 56.5889 303.5383 15.62516630 14277 ISS OBJECT XZ 1 67683U 98067XZ 26063.12412783 .00048104 00000+0 80590-3 0 9996 2 67683 51.6304 99.4942 0009483 167.0393 193.0841 15.51316710 3921 GXIBA-1 1 67684U 98067YA 26062.26849864 .00074906 00000+0 11656-2 0 9990 2 67684 51.6298 103.5313 0010978 154.9471 205.2054 15.53164734 3792 CORAL 1 67685U 98067YB 26063.12087566 .00051311 00000+0 84892-3 0 9998 2 67685 51.6306 99.4725 0011412 163.4615 196.6749 15.51617539 3925 ISS OBJECT YC 1 67686U 98067YC 26063.11706777 .00065825 00000+0 10702-2 0 9993 2 67686 51.6306 99.4495 0007705 130.8596 229.3063 15.52036952 3924 LEOPARD 1 67687U 98067YD 26063.12237470 .00050832 00000+0 84698-3 0 9992 2 67687 51.6307 99.4833 0007776 135.4540 224.7075 15.51460926 3844 ISS OBJECT YE 1 67688U 98067YE 26062.41037585 .00049325 00000+0 81368-3 0 9995 2 67688 51.6313 102.9800 0007700 129.5648 230.6023 15.51755615 3735 CREW DRAGON 12 1 67796U 26031A 26063.15679535 .00010207 00000+0 19684-3 0 9995 2 67796 51.6316 99.7104 0008201 155.0339 205.1047 15.48434477555793